Probability
0 0 0 0 0 0 0 0 0 1 2 4 5 5 4 3 2 1 2 5 6 6 4 2 1 2 3 4 5 6 8 9 9 9 9 10 10 9 8 7 6 7 8 7
0 0 0 0 0 0 0 0 0 1 3 4 4 4 3 3 3 2 3 5 6 5 3 1 0 1 3 5 6 6 7 8 8 8 9 10 10 9 7 5 4 6 6 6
0 0 0 0 0 0 0 0 0 1 3 3 3 2 3 3 3 3 3 3 3 3 1 1 0 0 2 5 6 6 7 7 8 9 9 9 9 7 5 4 4 5 5 5
0 0 0 0 0 0 0 1 1 1 2 2 1 1 1 2 2 2 2 1 1 1 1 1 0 0 1 3 5 6 6 6 7 8 8 9 8 6 4 3 4 5 4 4
0 0 0 0 0 0 1 2 2 1 1 1 0 0 0 1 1 1 1 0 0 0 0 0 0 1 1 3 4 4 3 3 4 6 7 8 7 6 4 3 4 4 4 3
0 0 0 0 0 0 1 1 1 1 0 0 0 1 0 0 0 0 0 0 0 0 0 0 0 1 2 3 3 3 2 2 3 4 6 7 7 6 5 4 3 2 2 2
0 0 0 0 0 0 0 0 0 0 0 0 0 0 0 0 0 0 0 0 0 0 0 0 0 1 2 2 2 2 2 2 3 3 4 6 6 6 6 4 2 1 1 1
0 0 0 0 0 0 0 0 0 0 0 0 0 0 0 0 0 0 0 0 0 0 0 0 0 0 1 1 1 1 1 2 3 4 5 5 6 6 5 3 1 0 0 0
0 0 1 1 1 0 0 0 1 1 0 0 0 0 0 0 0 0 0 0 0 0 0 0 0 0 0 0 0 1 1 2 3 5 6 6 6 5 4 2 1 0 0 0
0 0 1 2 1 1 0 1 1 1 1 0 0 0 0 0 1 2 1 0 0 1 2 1 1 1 2 1 1 2 2 3 3 4 5 5 4 3 2 1 0 0 0 0
0 0 1 1 1 1 2 1 1 1 1 1 1 0 0 1 2 3 2 1 1 2 3 3 2 3 3 2 2 3 3 3 3 3 3 2 1 1 1 0 0 0 0 0
0 0 0 1 1 2 3 3 2 2 2 2 2 1 1 1 3 3 3 3 3 3 3 3 3 3 2 2 2 2 2 2 1 1 1 0 0 0 0 0 0 0 0 0
0 0 1 2 3 3 3 3 3 2 3 3 3 3 2 3 3 3 3 3 3 3 3 3 3 2 1 0 1 1 1 1 0 0 0 0 0 0 0 0 0 0 0 0
0 0 1 2 2 2 2 2 1 2 3 3 3 3 3 3 3 3 3 3 3 3 3 3 2 1 0 0 0 0 0 0 0 0 0 0 0 0 0 0 0 0 0 0
0 0 0 1 1 1 1 1 1 2 3 3 3 3 3 3 3 3 3 3 3 3 2 1 1 0 0 0 0 0 0 0 0 0 0 0 0 0 0 0 0 0 0 0
0 0 0 0 0 0 0 0 0 1 2 3 3 3 2 3 3 3 3 3 3 3 2 0 0 0 0 0 0 0 0 0 0 0 0 0 0 0 0 0 0 0 0 0
0 0 0 0 0 0 0 0 0 0 1 2 2 1 1 1 2 2 2 2 2 2 1 0 0 0 0 0 0 0 0 0 0 0 0 0 0 0 0 0 0 0 0 0
0 0 0 0 0 0 0 0 0 0 0 1 1 0 0 0 1 1 1 1 1 1 1 0 0 0 0 0 0 0 0 0 0 0 0 0 0 0 0 0 0 0 0 0
0 0 0 0 0 0 0 0 0 0 0 0 0 0 0 0 0 0 0 0 0 0 0 0 0 0 0 0 0 0 0 0 0 0 0 0 0 0 0 0 0 0 0 0
0 0 0 0 0 0 0 0 0 0 0 0 0 0 0 0 0 0 0 0 0 0 0 0 0 0 0 0 0 0 0 0 0 0 0 0 0 0 0 0 0 0 0 0
0 0 0 0 0 0 0 0 0 0 0 0 0 0 0 0 0 0 0 0 0 0 0 0 0 0 0 0 0 0 0 0 0 0 0 0 0 0 0 0 0 0 0 0
0 0 0 0 0 0 0 0 0 0 0 0 0 0 0 0 0 0 0 0 0 0 0 0 0 0 0 0 0 0 0 0 0 0 0 0 0 0 0 0 0 0 0 0
0 0 0 0 0 0 0 0 0 0 0 0 0 0 0 0 0 0 0 0 0 0 0 0 0 0 0 0 0 0 0 0 0 0 0 0 0 0 0 0 0 0 0 0
0 0 0 0 0 0 0 0 0 0 0 0 0 0 0 0 0 0 0 0 0 0 0 0 0 0 0 0 0 0 0 0 0 0 0 0 0 0 0 0 0 0 0 0
0 0 0 0 0 0 0 0 0 0 0 0 0 0 0 0 0 0 0 0 0 0 0 0 0 0 0 0 0 0 0 0 0 0 0 0 0 0 0 0 0 0 0 0
0 0 0 0 0 0 0 0 0 0 0 0 0 0 0 0 0 0 0 0 0 0 0 0 0 0 0 0 0 0 0 0 0 0 0 0 0 0 0 0 0 0 0 0
0 0 0 0 0 0 0 0 0 0 0 0 0 0 0 0 0 0 0 0 0 0 0 0 0 0 0 0 0 0 0 0 0 0 0 0 0 0 0 0 0 0 0 0
Wind_Speed
3 2 2 1 2 3 4 6 6 6 6 6 5 4 3 2 1 2 2 2 2 2 1 1 1 1 2 2 2 2 3 4 4 4 3 3 3 3 3 2 3 2 2 2
1 1 1 1 2 3 3 3 3 2 4 3 1 1 1 2 2 2 2 2 2 2 1 1 2 2 2 3 3 3 4 4 3 3 3 3 3 2 2 2 2 2 2 2
2 2 1 3 3 3 2 2 3 4 5 1 1 3 4 3 2 2 2 2 2 2 3 3 3 3 3 3 2 3 3 3 3 3 4 4 3 2 2 2 2 2 2 2
1 1 4 5 1 1 2 1 1 2 2 2 3 1 1 1 2 1 1 1 2 2 2 3 2 2 2 2 2 3 3 3 3 3 3 3 3 3 2 2 2 2 2 2
3 2 3 4 2 1 1 2 1 1 1 1 2 3 2 1 1 2 2 2 2 2 2 1 1 2 2 2 2 2 2 2 3 3 3 3 3 3 2 2 2 2 2 2
4 3 5 5 3 1 2 2 1 2 2 2 3 2 3 1 0 0 0 0 0 0 1 0 0 2 3 2 1 1 2 2 2 2 3 3 3 2 2 2 2 2 1 1
3 3 5 4 3 1 3 5 1 2 2 2 2 3 2 1 1 1 1 1 2 2 1 1 1 2 2 2 1 2 1 1 1 2 2 3 2 2 2 2 1 1 1 1
3 3 6 3 1 3 5 2 1 2 2 2 1 1 1 2 1 2 2 2 2 2 2 2 2 2 1 0 2 1 1 1 0 1 1 1 2 2 2 2 2 1 0 1
5 6 4 2 3 2 2 2 2 2 2 3 2 1 2 2 2 1 1 2 2 2 2 2 2 2 1 2 1 1 1 1 0 1 1 1 2 2 2 2 1 1 1 1
2 4 4 4 3 2 1 1 1 2 3 4 3 3 2 2 1 1 1 1 1 2 2 2 2 1 0 1 1 1 1 1 1 1 1 1 1 1 2 2 2 2 2 2
3 4 3 3 3 2 0 0 0 1 2 3 3 3 3 2 2 1 1 1 1 2 1 0 1 1 1 1 1 2 1 1 1 1 1 1 1 0 1 2 3 3 3 2
5 5 4 5 4 2 2 2 2 2 1 1 2 3 3 2 2 1 1 1 1 1 1 0 0 1 1 1 2 2 2 1 1 1 1 1 1 1 2 1 1 1 3 3
4 2 3 3 2 2 3 3 3 3 3 2 1 2 3 2 2 2 1 1 1 1 0 0 0 1 1 1 1 2 1 1 1 1 0 0 0 1 1 3 3 2 1 1
2 1 1 1 2 2 2 2 2 2 2 2 1 1 2 2 1 1 1 1 1 1 0 0 0 1 1 0 1 2 1 1 1 1 0 0 0 0 0 0 1 2 2 2
2 1 3 2 1 0 1 2 2 1 1 1 1 1 2 3 2 2 1 1 1 1 0 0 0 1 1 1 2 2 1 1 1 1 0 0 0 1 0 0 0 1 1 2
2 1 1 1 2 1 1 2 2 2 2 1 1 1 2 2 2 1 1 1 2 1 1 1 2 2 1 1 2 1 1 1 1 1 1 0 0 0 1 1 0 0 1 1
2 2 2 2 3 3 3 4 4 4 3 3 3 2 2 2 1 1 1 1 1 1 2 2 2 2 2 2 2 2 1 1 1 1 1 1 1 0 0 1 1 1 1 2
4 5 5 5 4 3 3 3 3 3 4 4 3 2 2 3 3 3 2 1 0 1 2 2 2 2 1 1 1 2 1 1 1 1 1 1 1 1 0 0 1 1 1 2
2 2 2 2 3 3 3 3 3 3 3 3 4 3 3 3 3 2 2 1 1 2 3 2 2 2 2 2 1 1 2 1 1 1 1 1 1 0 0 0 1 1 1 1
0 1 1 1 1 2 2 2 2 2 2 3 4 3 3 3 2 2 2 2 3 3 3 2 1 1 2 2 1 1 2 2 2 1 1 1 1 1 0 0 0 1 1 1
1 1 1 1 0 0 1 2 2 2 2 3 4 4 4 3 3 3 2 2 3 2 2 2 1 1 1 1 1 1 2 2 2 1 1 1 1 1 1 1 1 1 1 1
1 1 1 1 1 1 1 1 2 2 2 3 3 4 3 3 3 2 3 4 3 2 1 1 1 2 2 2 1 1 1 2 2 1 1 1 1 1 1 1 1 1 1 1
2 2 2 2 2 2 1 1 2 2 3 3 4 4 4 4 3 3 3 3 2 3 2 2 2 3 3 2 2 2 2 2 2 2 2 2 2 2 1 1 2 2 1 1
1 1 1 1 1 1 1 2 2 2 2 2 3 4 3 2 3 3 3 3 4 3 2 2 3 3 3 1 1 1 1 1 2 2 1 1 1 1 1 1 1 1 1 1
1 1 1 1 1 2 2 1 1 1 1 1 2 3 3 3 4 3 2 3 3 3 1 1 2 3 2 1 1 1 2 2 2 2 2 2 1 1 1 1 1 1 1 1
1 1 2 3 3 2 2 1 2 2 2 2 2 2 2 2 2 2 2 2 3 3 2 1 1 2 1 1 2 2 2 2 2 2 2 2 2 2 2 2 2 1 1 1
2 1 1 2 2 1 1 1 2 2 2 2 2 2 2 2 2 2 3 2 2 2 2 1 1 2 2 2 2 1 1 1 1 1 2 2 2 2 2 2 2 1 1 1
Wind_Direction
222 232 175 194 220 177 181 188 189 220 215 234 224 216 221 211 188 156 151 150 163 171 173 159 166 208 221 224 219 203 193 197 207 210 201 195 198 202 199 195 204 211 214 218
266 236 154 256 269 215 216 206 209 208 241 244 205 137 153 165 164 173 184 179 179 181 197 217 217 226 236 238 223 197 195 205 206 198 195 196 198 193 191 191 200 204 209 209
249 285 13 270 250 213 208 202 183 212 233 203 171 186 195 194 184 187 189 183 197 212 216 223 221 218 224 235 218 191 198 203 200 196 199 202 196 181 197 200 196 205 198 186
163 75 225 243 277 204 177 260 235 235 235 209 207 192 152 167 189 210 196 190 222 235 236 236 230 223 225 215 189 191 197 200 196 194 203 202 185 188 201 190 186 194 198 197
129 180 270 290 295 195 184 283 317 182 176 83 84 67 15 13 182 215 212 209 222 234 233 234 225 201 170 168 168 175 198 208 206 193 190 190 193 199 195 175 180 185 189 191
129 162 230 254 289 302 121 280 301 155 155 141 98 117 260 276 105 180 229 150 141 52 64 125 222 135 129 142 145 209 227 221 196 178 177 186 195 187 177 172 184 172 175 194
148 198 256 267 296 91 163 245 261 170 169 162 179 209 228 90 65 88 62 52 71 84 70 7 53 110 125 129 204 243 255 209 153 161 178 178 169 164 153 147 142 140 170 224
146 180 253 293 91 176 222 249 179 153 145 146 183 144 111 101 84 81 64 60 70 78 47 26 52 93 95 291 277 325 53 75 130 156 170 148 143 145 145 142 142 159 189 287
185 210 243 257 231 250 197 199 193 166 159 143 137 135 123 117 110 104 90 76 73 84 57 31 45 89 97 318 353 46 58 60 82 90 84 112 140 149 147 147 165 208 216 244
242 266 277 278 275 280 221 212 217 177 163 150 155 161 144 134 133 124 101 83 83 89 75 25 10 14 278 331 32 75 64 46 62 83 71 73 120 151 166 176 185 204 212 229
255 277 305 296 266 237 194 49 77 119 159 164 154 159 162 155 163 174 157 129 114 114 126 312 1 358 350 20 72 75 70 53 51 60 89 78 75 129 204 220 207 202 215 217
228 230 210 252 259 215 171 200 189 147 110 107 162 170 161 167 177 173 159 135 112 106 124 242 11 2 1 30 98 102 80 57 47 35 28 74 84 41 31 33 24 213 219 218
229 232 214 252 258 208 187 201 195 173 166 171 192 172 162 169 175 156 129 122 157 202 213 196 73 12 353 18 103 114 122 110 88 64 18 7 80 88 25 9 23 32 9 240
229 101 330 279 249 234 193 191 171 161 164 161 159 149 148 147 144 155 171 193 195 168 147 98 80 310 296 170 129 125 123 115 110 114 126 68 24 343 171 101 351 347 352 348
266 227 214 243 271 231 166 131 126 146 157 145 121 155 157 161 181 202 212 174 134 121 131 109 292 299 300 160 143 141 132 131 129 122 113 102 58 12 341 95 202 323 344 349
271 290 193 177 209 206 138 140 170 206 198 181 193 217 197 184 185 184 184 156 154 204 248 256 263 277 271 182 162 156 161 149 137 141 138 122 81 42 339 307 304 344 326 316
183 228 223 239 235 215 192 191 195 197 195 197 209 205 154 134 139 204 238 227 208 228 243 242 259 274 261 206 183 187 187 184 175 165 181 193 187 213 277 299 305 311 308 306
206 213 209 209 208 212 221 214 195 188 199 206 190 170 168 175 194 211 224 218 176 303 278 260 268 276 267 240 197 190 187 193 199 203 197 185 195 194 175 287 314 311 318 327
212 211 219 219 203 196 203 209 206 202 198 179 169 182 193 196 190 186 180 166 217 269 285 284 283 280 272 254 210 183 182 187 195 201 190 183 185 181 176 207 282 300 302 307
189 215 210 207 172 173 197 214 207 199 195 179 171 170 180 202 201 185 174 206 230 237 256 263 259 269 278 266 225 183 185 187 191 196 190 187 189 216 231 237 283 310 311 306
198 189 172 151 127 139 198 196 195 211 212 185 179 187 198 205 195 182 185 240 265 252 237 226 215 232 254 244 214 190 188 190 196 201 206 210 215 235 244 240 264 287 297 303
237 215 221 196 180 260 268 223 204 207 202 195 194 192 191 196 200 205 222 233 244 228 215 225 224 224 218 198 190 198 203 196 200 207 212 214 216 226 239 241 248 266 283 285
256 230 218 229 238 251 264 242 214 201 200 197 195 203 210 213 205 202 236 242 224 212 210 225 226 212 196 181 185 191 203 208 209 213 220 219 221 222 224 237 249 262 272 274
297 259 239 248 244 220 246 255 244 232 221 214 208 202 198 211 240 235 228 222 211 207 214 217 198 193 184 183 185 187 194 205 210 213 215 221 227 226 222 235 258 275 277 274
300 283 267 232 233 240 238 242 259 268 248 251 243 227 215 210 220 231 221 219 209 192 201 209 191 186 185 184 193 207 214 212 210 208 209 209 219 228 238 240 244 259 269 272
292 275 261 246 236 235 225 209 229 236 222 240 262 247 226 218 216 213 201 197 191 186 194 203 186 181 188 200 212 219 224 222 216 215 214 212 211 215 229 236 248 256 261 268
305 303 303 308 294 253 218 203 225 241 228 222 242 244 221 210 202 199 196 196 191 192 193 195 196 196 197 202 212 219 216 216 217 218 213 211 209 215 226 233 240 247 257 262